DW6536 Weather Reports


Display with metric or nautical units.
time (UTC)temp
F
wind
direction
speed
MPH
gust
MPH
rain 1hr
in
rain 24hr
in
rain mn
in
humidity
%
barometer
mb
20260505010100 77 170 2.0 0.0 0.00 0.00 0.00 67 1006.5
20260505004605 78 76 2.0 0.0 0.00 0.00 0.00 66 1006.5
20260505003058 78 207 2.0 0.0 0.00 0.00 0.00 64 1006.4
20260505001558 78 292 2.0 0.0 0.00 0.00 0.00 64 1006.3
20260505000058 79 210 2.0 0.0 0.00 0.00 0.00 63 1006.2
20260504234555 80 172 3.0 0.0 0.00 0.00 0.00 62 1006.5
20260504233100 80 122 3.0 0.0 0.00 0.00 0.00 63 1006.7
20260504231553 80 87 3.0 0.0 0.00 0.00 0.00 62 1006.6
20260504230052 81 172 3.0 0.0 0.00 0.00 0.00 61 1006.8
20260504224550 81 230 3.0 0.0 0.00 0.00 0.00 60 1007.0
20260504223054 83 149 3.0 0.0 0.00 0.00 0.00 58 1007.2
20260504221558 83 110 3.0 0.0 0.00 0.00 0.00 59 1007.1
20260504220108 83 145 2.0 0.0 0.00 0.00 0.00 58 1007.3
20260504214548 83 170 3.0 0.0 0.00 0.00 0.00 57 1007.3
20260504213050 82 125 3.0 0.0 0.00 0.00 0.00 60 1007.5
20260504211542 82 110 3.0 0.0 0.00 0.00 0.00 59 1008.0
20260504210041 82 180 3.0 0.0 0.00 0.00 0.00 61 1008.2
20260504204556 80 145 4.0 0.0 0.00 0.00 0.00 63 1008.5
20260504203038 80 222 2.0 0.0 0.00 0.00 0.00 61 1008.6
20260504201536 81 118 4.0 0.0 0.00 0.00 0.00 61 1009.0
20260504200042 81 193 3.0 0.0 0.00 0.00 0.00 60 1009.2
20260504194538 82 118 3.0 0.0 0.00 0.00 0.00 59 1009.6
20260504193031 82 185 3.0 0.0 0.00 0.00 0.00 60 1009.7
20260504191530 82 122 2.0 0.0 0.00 0.00 0.00 59 1009.8
20260504190030 81 170 2.0 0.0 0.00 0.00 0.00 62 1010.3
20260504184532 81 289 2.0 0.0 0.00 0.00 0.00 60 1010.3
20260504183021 79 216 3.0 0.0 0.00 0.00 0.00 63 1010.6
20260504181517 79 117 2.0 0.0 0.00 0.00 0.00 64 1011.1
20260504180017 79 170 2.0 0.0 0.00 0.00 0.00 62 1011.1
20260504174512 77 105 3.0 0.0 0.00 0.00 0.00 65 1011.4
20260504173010 75 231 2.0 0.0 0.00 0.00 0.00 68 1011.7
20260504171507 75 164 2.0 0.0 0.00 0.00 0.00 66 1012.1
20260504160106 74 243 2.0 0.0 0.00 0.00 0.00 68 1012.7
20260504081528 62 176 2.0 0.0 0.00 0.00 0.00 75 1013.2
20260504044545 65 131 1.0 0.0 0.00 0.00 0.00 65 1015.5
20260504043050 65 122 1.0 0.0 0.00 0.00 0.00 64 1015.7
20260504041545 65 135 0.0 0.0 0.00 0.00 0.00 62 1015.6
20260504040044 64 111 1.0 0.0 0.00 0.00 0.00 62 1015.8
20260504034543 65 140 0.0 0.0 0.00 0.00 0.00 60 1015.7
20260504033043 65 140 0.0 0.0 0.00 0.00 0.00 58 1015.6
20260504031542 65 141 0.0 0.0 0.00 0.00 0.00 57 1015.6
20260504030042 66 148 0.0 0.0 0.00 0.00 0.00 58 1015.7
20260504024544 66 148 0.0 0.0 0.00 0.00 0.00 57 1015.6
20260504023041 66 158 0.0 0.0 0.00 0.00 0.00 57 1015.5
20260504021540 66 133 0.0 0.0 0.00 0.00 0.00 56 1015.6
20260504020117 67 133 0.0 0.0 0.00 0.00 0.00 55 1015.5
20260504014554 68 133 0.0 0.0 0.00 0.00 0.00 54 1015.1
20260504013048 69 133 0.0 0.0 0.00 0.00 0.00 51 1015.0
20260504011539 71 141 0.0 0.0 0.00 0.00 0.00 48 1015.1